QPF
0.05 0.04 0.04 0.03 0.03 0.03 0.03 0.03 0.03 0.03 0.02 0.02 0.02 0.02 0.02 0.02 0.02 0.01 0.02 0.03 0.04 0.07 0.08 0.09 0.08 0.09 0.12 0.14 0.12 0.10 0.07 0.06 0.04 0.04 0.04 0.03 0.03 0.03 0.04 0.05 0.06 0.05 0.05
0.05 0.03 0.03 0.02 0.02 0.03 0.03 0.04 0.04 0.04 0.03 0.02 0.02 0.02 0.02 0.02 0.02 0.02 0.02 0.02 0.03 0.03 0.05 0.07 0.08 0.09 0.10 0.10 0.10 0.10 0.07 0.05 0.06 0.05 0.03 0.03 0.03 0.05 0.06 0.06 0.06 0.06 0.06
0.04 0.04 0.03 0.03 0.03 0.04 0.04 0.04 0.05 0.05 0.04 0.02 0.03 0.03 0.02 0.02 0.02 0.02 0.01 0.01 0.02 0.02 0.04 0.06 0.07 0.07 0.07 0.08 0.09 0.09 0.09 0.07 0.07 0.05 0.04 0.03 0.04 0.06 0.06 0.06 0.06 0.06 0.06
0.03 0.03 0.04 0.04 0.05 0.04 0.05 0.04 0.05 0.05 0.03 0.02 0.02 0.03 0.03 0.03 0.03 0.02 0.01 0.01 0.01 0.02 0.03 0.06 0.09 0.06 0.07 0.09 0.11 0.11 0.09 0.08 0.07 0.06 0.05 0.06 0.08 0.10 0.07 0.07 0.06 0.05 0.06
0.02 0.03 0.03 0.04 0.06 0.06 0.06 0.05 0.05 0.06 0.04 0.02 0.02 0.03 0.02 0.02 0.03 0.01 0.01 0.01 0.01 0.02 0.03 0.04 0.05 0.05 0.07 0.09 0.11 0.11 0.11 0.10 0.08 0.07 0.07 0.06 0.08 0.11 0.09 0.08 0.06 0.05 0.05
0.03 0.03 0.02 0.02 0.03 0.05 0.06 0.07 0.07 0.08 0.05 0.04 0.02 0.02 0.01 0.01 0.01 0.01 0.01 0.01 0.02 0.02 0.03 0.04 0.04 0.03 0.04 0.06 0.08 0.10 0.11 0.11 0.09 0.12 0.13 0.07 0.07 0.09 0.09 0.07 0.05 0.05 0.06
0.04 0.03 0.02 0.02 0.03 0.04 0.05 0.07 0.08 0.09 0.07 0.06 0.04 0.02 0.01 0.01 0.01 0.01 0.01 0.02 0.02 0.02 0.02 0.01 0.02 0.02 0.02 0.04 0.06 0.07 0.08 0.10 0.10 0.12 0.17 0.10 0.07 0.07 0.08 0.07 0.05 0.04 0.04
0.04 0.04 0.04 0.04 0.04 0.05 0.06 0.06 0.07 0.09 0.09 0.07 0.05 0.03 0.02 0.01 0.01 0.01 0.01 0.01 0.02 0.02 0.02 0.01 0.01 0.02 0.01 0.01 0.02 0.04 0.05 0.07 0.09 0.10 0.18 0.10 0.07 0.09 0.09 0.07 0.05 0.04 0.03
0.05 0.05 0.05 0.06 0.07 0.06 0.05 0.05 0.06 0.08 0.08 0.06 0.04 0.03 0.02 0.02 0.01 0.00 0.01 0.01 0.01 0.01 0.01 0.01 0.01 0.02 0.02 0.01 0.01 0.02 0.05 0.06 0.08 0.13 0.18 0.09 0.07 0.08 0.09 0.07 0.06 0.05 0.04
0.05 0.05 0.06 0.07 0.07 0.07 0.05 0.05 0.05 0.06 0.07 0.05 0.03 0.02 0.02 0.02 0.01 0.01 0.00 0.00 0.01 0.01 0.01 0.01 0.01 0.01 0.01 0.01 0.01 0.02 0.03 0.06 0.08 0.16 0.16 0.09 0.06 0.06 0.06 0.06 0.06 0.06 0.05
0.03 0.03 0.05 0.05 0.04 0.05 0.05 0.04 0.04 0.05 0.04 0.03 0.02 0.02 0.02 0.01 0.01 0.01 0.00 0.01 0.01 0.01 0.01 0.01 0.01 0.01 0.01 0.01 0.01 0.02 0.03 0.06 0.08 0.11 0.11 0.09 0.07 0.06 0.05 0.05 0.06 0.06 0.06
0.02 0.02 0.02 0.02 0.02 0.03 0.04 0.04 0.03 0.02 0.02 0.02 0.02 0.01 0.01 0.00 0.01 0.00 0.00 0.00 0.01 0.01 0.01 0.02 0.04 0.04 0.04 0.03 0.03 0.05 0.06 0.08 0.08 0.09 0.08 0.07 0.07 0.06 0.06 0.06 0.06 0.05 0.06
0.02 0.02 0.02 0.01 0.01 0.01 0.02 0.03 0.03 0.02 0.02 0.03 0.02 0.01 0.00 0.00 0.00 0.00 0.00 0.00 0.00 0.02 0.02 0.03 0.07 0.08 0.07 0.05 0.04 0.05 0.05 0.07 0.07 0.08 0.05 0.04 0.05 0.05 0.05 0.05 0.05 0.04 0.05
0.01 0.02 0.02 0.01 0.01 0.01 0.02 0.03 0.03 0.02 0.02 0.02 0.02 0.01 0.01 0.00 0.00 0.00 0.00 0.00 0.00 0.02 0.03 0.04 0.07 0.08 0.08 0.06 0.05 0.04 0.03 0.06 0.07 0.05 0.04 0.03 0.03 0.03 0.03 0.03 0.04 0.05 0.04
0.03 0.03 0.03 0.02 0.01 0.01 0.01 0.01 0.02 0.03 0.03 0.02 0.02 0.01 0.01 0.01 0.00 0.00 0.00 0.00 0.00 0.01 0.02 0.03 0.06 0.07 0.08 0.08 0.07 0.04 0.03 0.05 0.07 0.04 0.03 0.02 0.02 0.02 0.02 0.03 0.04 0.06 0.05
0.04 0.03 0.02 0.01 0.01 0.01 0.01 0.01 0.01 0.03 0.03 0.02 0.02 0.02 0.02 0.01 0.00 0.00 0.00 0.00 0.00 0.00 0.01 0.01 0.03 0.04 0.05 0.06 0.08 0.05 0.04 0.06 0.06 0.05 0.04 0.02 0.02 0.01 0.01 0.02 0.05 0.07 0.06
0.03 0.02 0.01 0.01 0.01 0.01 0.00 0.01 0.01 0.01 0.02 0.03 0.02 0.02 0.01 0.01 0.01 0.01 0.01 0.01 0.00 0.01 0.01 0.01 0.02 0.03 0.04 0.03 0.03 0.03 0.04 0.05 0.05 0.06 0.05 0.03 0.02 0.02 0.01 0.03 0.08 0.08 0.06
0.03 0.01 0.01 0.01 0.01 0.01 0.00 0.01 0.01 0.01 0.02 0.03 0.03 0.02 0.02 0.01 0.01 0.01 0.01 0.01 0.02 0.02 0.02 0.02 0.02 0.04 0.03 0.02 0.02 0.02 0.03 0.03 0.05 0.06 0.05 0.04 0.03 0.01 0.01 0.05 0.12 0.11 0.09
0.02 0.01 0.00 0.01 0.01 0.01 0.01 0.01 0.01 0.01 0.01 0.02 0.03 0.03 0.02 0.02 0.01 0.01 0.01 0.02 0.03 0.03 0.03 0.03 0.02 0.02 0.03 0.02 0.02 0.02 0.02 0.02 0.04 0.06 0.05 0.04 0.03 0.01 0.01 0.08 0.14 0.13 0.11
0.02 0.01 0.00 0.00 0.01 0.01 0.02 0.02 0.02 0.01 0.01 0.02 0.03 0.04 0.03 0.02 0.02 0.02 0.01 0.02 0.04 0.03 0.03 0.03 0.02 0.02 0.02 0.01 0.01 0.01 0.02 0.02 0.04 0.05 0.05 0.04 0.03 0.02 0.02 0.06 0.12 0.14 0.16
0.01 0.01 0.00 0.00 0.01 0.01 0.01 0.03 0.04 0.03 0.02 0.02 0.02 0.03 0.04 0.03 0.03 0.03 0.02 0.03 0.04 0.03 0.03 0.02 0.02 0.02 0.02 0.01 0.01 0.01 0.01 0.02 0.03 0.03 0.03 0.03 0.02 0.02 0.02 0.04 0.07 0.10 0.12
0.01 0.01 0.00 0.00 0.01 0.01 0.01 0.02 0.03 0.05 0.05 0.04 0.04 0.03 0.04 0.04 0.03 0.03 0.03 0.03 0.03 0.03 0.03 0.03 0.02 0.02 0.02 0.01 0.01 0.01 0.01 0.01 0.02 0.02 0.02 0.02 0.02 0.02 0.01 0.02 0.04 0.04 0.05
0.01 0.01 0.01 0.01 0.01 0.01 0.02 0.02 0.02 0.03 0.05 0.06 0.06 0.05 0.04 0.04 0.04 0.03 0.03 0.03 0.03 0.03 0.04 0.03 0.02 0.02 0.02 0.02 0.01 0.01 0.01 0.01 0.01 0.01 0.01 0.01 0.01 0.02 0.01 0.01 0.03 0.03 0.02
0.01 0.01 0.01 0.02 0.02 0.02 0.02 0.02 0.02 0.03 0.03 0.03 0.04 0.05 0.06 0.05 0.04 0.04 0.03 0.03 0.03 0.03 0.03 0.02 0.01 0.01 0.02 0.02 0.03 0.02 0.02 0.02 0.02 0.01 0.01 0.01 0.01 0.01 0.01 0.00 0.01 0.02 0.03
0.01 0.01 0.01 0.02 0.02 0.03 0.02 0.02 0.03 0.03 0.03 0.03 0.03 0.03 0.03 0.03 0.04 0.04 0.03 0.03 0.03 0.02 0.02 0.03 0.02 0.02 0.02 0.03 0.05 0.05 0.04 0.03 0.02 0.02 0.01 0.01 0.01 0.01 0.01 0.00 0.01 0.02 0.03
0.02 0.02 0.02 0.02 0.01 0.02 0.03 0.02 0.03 0.03 0.03 0.03 0.03 0.03 0.03 0.03 0.03 0.03 0.02 0.02 0.02 0.02 0.03 0.03 0.04 0.03 0.02 0.03 0.04 0.05 0.05 0.05 0.03 0.02 0.01 0.01 0.02 0.03 0.02 0.01 0.01 0.02 0.02
MSLP
1013.93 1014.07 1014.13 1014.14 1014.15 1014.17 1014.23 1014.35 1014.50 1014.66 1014.81 1014.92 1014.97 1014.97 1014.91 1014.82 1014.74 1014.68 1014.67 1014.72 1014.83 1014.98 1015.17 1015.37 1015.57 1015.76 1015.94 1016.10 1016.25 1016.40 1016.56 1016.73 1016.92 1017.15 1017.40 1017.66 1017.93 1018.18 1018.39 1018.54 1018.61 1018.61 1018.54
1013.68 1013.83 1013.92 1013.98 1014.03 1014.10 1014.19 1014.32 1014.47 1014.62 1014.75 1014.84 1014.88 1014.85 1014.77 1014.66 1014.55 1014.46 1014.40 1014.41 1014.48 1014.61 1014.78 1014.99 1015.21 1015.43 1015.65 1015.86 1016.05 1016.24 1016.44 1016.64 1016.87 1017.11 1017.38 1017.66 1017.93 1018.19 1018.41 1018.56 1018.64 1018.64 1018.56
1013.42 1013.58 1013.72 1013.84 1013.96 1014.09 1014.23 1014.39 1014.55 1014.70 1014.81 1014.88 1014.89 1014.84 1014.74 1014.60 1014.45 1014.31 1014.22 1014.18 1014.20 1014.30 1014.45 1014.65 1014.89 1015.14 1015.40 1015.65 1015.89 1016.13 1016.36 1016.60 1016.85 1017.12 1017.40 1017.69 1017.97 1018.23 1018.45 1018.61 1018.70 1018.71 1018.65
1013.20 1013.38 1013.56 1013.75 1013.94 1014.14 1014.34 1014.53 1014.71 1014.85 1014.95 1015.00 1014.99 1014.91 1014.78 1014.62 1014.44 1014.27 1014.13 1014.04 1014.03 1014.08 1014.21 1014.39 1014.63 1014.90 1015.18 1015.47 1015.75 1016.03 1016.30 1016.56 1016.84 1017.12 1017.42 1017.71 1018.00 1018.27 1018.50 1018.67 1018.77 1018.80 1018.77
1013.07 1013.26 1013.48 1013.72 1013.98 1014.24 1014.48 1014.70 1014.89 1015.03 1015.12 1015.14 1015.11 1015.02 1014.88 1014.70 1014.50 1014.31 1014.14 1014.02 1013.96 1013.97 1014.06 1014.22 1014.44 1014.70 1014.99 1015.29 1015.60 1015.90 1016.19 1016.49 1016.78 1017.08 1017.39 1017.70 1018.00 1018.27 1018.52 1018.71 1018.84 1018.91 1018.92
1013.05 1013.24 1013.47 1013.75 1014.04 1014.34 1014.61 1014.84 1015.03 1015.16 1015.24 1015.25 1015.21 1015.12 1014.98 1014.81 1014.62 1014.42 1014.24 1014.09 1014.00 1013.97 1014.01 1014.12 1014.31 1014.54 1014.81 1015.11 1015.41 1015.72 1016.03 1016.34 1016.66 1016.97 1017.30 1017.62 1017.93 1018.23 1018.50 1018.72 1018.89 1019.00 1019.07
1013.13 1013.30 1013.53 1013.81 1014.11 1014.41 1014.68 1014.91 1015.08 1015.20 1015.27 1015.28 1015.25 1015.17 1015.06 1014.92 1014.75 1014.57 1014.39 1014.23 1014.11 1014.04 1014.03 1014.09 1014.22 1014.40 1014.63 1014.90 1015.18 1015.49 1015.80 1016.12 1016.44 1016.78 1017.12 1017.47 1017.80 1018.13 1018.43 1018.69 1018.91 1019.08 1019.21
1013.27 1013.41 1013.62 1013.88 1014.15 1014.42 1014.66 1014.86 1015.01 1015.11 1015.17 1015.19 1015.19 1015.15 1015.09 1014.99 1014.87 1014.73 1014.57 1014.41 1014.27 1014.16 1014.09 1014.09 1014.15 1014.26 1014.44 1014.65 1014.91 1015.19 1015.49 1015.81 1016.15 1016.51 1016.88 1017.25 1017.62 1017.98 1018.32 1018.63 1018.90 1019.13 1019.31
1013.41 1013.52 1013.69 1013.90 1014.13 1014.35 1014.54 1014.70 1014.81 1014.89 1014.95 1014.99 1015.02 1015.04 1015.04 1015.01 1014.95 1014.85 1014.72 1014.57 1014.41 1014.27 1014.15 1014.08 1014.06 1014.11 1014.21 1014.37 1014.58 1014.83 1015.12 1015.44 1015.80 1016.17 1016.57 1016.98 1017.39 1017.80 1018.18 1018.54 1018.86 1019.14 1019.38
1013.51 1013.59 1013.71 1013.87 1014.04 1014.20 1014.33 1014.43 1014.51 1014.57 1014.63 1014.69 1014.76 1014.83 1014.90 1014.94 1014.94 1014.90 1014.80 1014.67 1014.50 1014.32 1014.16 1014.02 1013.93 1013.91 1013.95 1014.05 1014.21 1014.43 1014.71 1015.03 1015.40 1015.80 1016.23 1016.67 1017.12 1017.57 1018.00 1018.41 1018.78 1019.11 1019.40
1013.52 1013.58 1013.67 1013.78 1013.88 1013.98 1014.05 1014.10 1014.14 1014.17 1014.23 1014.31 1014.42 1014.54 1014.67 1014.77 1014.83 1014.83 1014.76 1014.64 1014.47 1014.27 1014.06 1013.88 1013.73 1013.65 1013.63 1013.68 1013.81 1014.01 1014.27 1014.59 1014.97 1015.40 1015.86 1016.34 1016.83 1017.32 1017.79 1018.24 1018.66 1019.04 1019.38
1013.43 1013.48 1013.55 1013.62 1013.68 1013.72 1013.73 1013.73 1013.73 1013.74 1013.79 1013.88 1014.01 1014.16 1014.33 1014.48 1014.58 1014.61 1014.57 1014.46 1014.28 1014.07 1013.84 1013.63 1013.45 1013.32 1013.27 1013.29 1013.39 1013.57 1013.83 1014.16 1014.55 1015.00 1015.48 1016.00 1016.52 1017.04 1017.56 1018.04 1018.50 1018.92 1019.30
1013.28 1013.33 1013.39 1013.43 1013.45 1013.44 1013.40 1013.35 1013.31 1013.29 1013.32 1013.40 1013.53 1013.70 1013.88 1014.05 1014.17 1014.22 1014.19 1014.09 1013.92 1013.71 1013.48 1013.26 1013.07 1012.94 1012.87 1012.88 1012.98 1013.16 1013.42 1013.76 1014.16 1014.62 1015.12 1015.66 1016.21 1016.76 1017.30 1017.82 1018.31 1018.76 1019.18
1013.08 1013.15 1013.20 1013.22 1013.21 1013.16 1013.08 1012.98 1012.90 1012.84 1012.84 1012.89 1013.00 1013.15 1013.32 1013.48 1013.60 1013.65 1013.63 1013.54 1013.39 1013.20 1012.99 1012.79 1012.62 1012.51 1012.46 1012.49 1012.60 1012.80 1013.07 1013.41 1013.82 1014.30 1014.81 1015.36 1015.92 1016.48 1017.04 1017.58 1018.10 1018.58 1019.03
1012.87 1012.96 1013.01 1013.02 1012.98 1012.89 1012.77 1012.63 1012.50 1012.40 1012.34 1012.35 1012.41 1012.52 1012.66 1012.79 1012.88 1012.93 1012.92 1012.85 1012.73 1012.57 1012.41 1012.26 1012.14 1012.08 1012.08 1012.15 1012.30 1012.52 1012.81 1013.17 1013.59 1014.06 1014.58 1015.12 1015.68 1016.25 1016.82 1017.37 1017.90 1018.40 1018.88
1012.69 1012.78 1012.83 1012.83 1012.76 1012.65 1012.49 1012.30 1012.12 1011.96 1011.84 1011.79 1011.79 1011.84 1011.92 1012.00 1012.07 1012.11 1012.10 1012.06 1011.98 1011.88 1011.79 1011.72 1011.68 1011.69 1011.76 1011.90 1012.10 1012.36 1012.68 1013.06 1013.48 1013.96 1014.46 1014.99 1015.54 1016.10 1016.65 1017.20 1017.73 1018.24 1018.73
1012.53 1012.62 1012.66 1012.65 1012.57 1012.42 1012.23 1012.00 1011.76 1011.53 1011.35 1011.22 1011.15 1011.12 1011.14 1011.17 1011.21 1011.24 1011.25 1011.24 1011.22 1011.19 1011.19 1011.21 1011.27 1011.38 1011.54 1011.76 1012.02 1012.34 1012.70 1013.11 1013.54 1014.01 1014.50 1015.00 1015.52 1016.05 1016.57 1017.10 1017.61 1018.12 1018.60
1012.39 1012.47 1012.50 1012.48 1012.38 1012.21 1011.99 1011.71 1011.42 1011.14 1010.88 1010.68 1010.53 1010.43 1010.38 1010.37 1010.38 1010.40 1010.43 1010.46 1010.50 1010.56 1010.65 1010.78 1010.94 1011.16 1011.42 1011.73 1012.08 1012.46 1012.87 1013.30 1013.75 1014.21 1014.68 1015.15 1015.63 1016.11 1016.60 1017.08 1017.56 1018.04 1018.52
1012.23 1012.31 1012.34 1012.30 1012.20 1012.02 1011.77 1011.46 1011.13 1010.79 1010.47 1010.20 1009.97 1009.81 1009.70 1009.65 1009.64 1009.66 1009.71 1009.79 1009.90 1010.04 1010.22 1010.44 1010.72 1011.04 1011.40 1011.80 1012.23 1012.68 1013.14 1013.61 1014.07 1014.53 1014.98 1015.42 1015.85 1016.28 1016.71 1017.14 1017.57 1018.01 1018.46
1012.04 1012.12 1012.16 1012.13 1012.02 1011.84 1011.58 1011.25 1010.89 1010.51 1010.14 1009.80 1009.52 1009.30 1009.15 1009.06 1009.03 1009.06 1009.14 1009.26 1009.43 1009.64 1009.91 1010.22 1010.58 1010.99 1011.44 1011.92 1012.43 1012.95 1013.46 1013.97 1014.45 1014.92 1015.35 1015.76 1016.14 1016.51 1016.88 1017.24 1017.62 1018.01 1018.42
1011.82 1011.92 1011.96 1011.95 1011.86 1011.68 1011.43 1011.10 1010.72 1010.31 1009.91 1009.53 1009.20 1008.94 1008.75 1008.64 1008.61 1008.64 1008.75 1008.90 1009.12 1009.39 1009.71 1010.09 1010.51 1010.99 1011.50 1012.05 1012.62 1013.19 1013.76 1014.30 1014.81 1015.28 1015.71 1016.09 1016.43 1016.75 1017.06 1017.37 1017.68 1018.02 1018.38
1011.59 1011.71 1011.78 1011.79 1011.72 1011.57 1011.33 1011.01 1010.63 1010.22 1009.79 1009.39 1009.04 1008.75 1008.54 1008.42 1008.38 1008.43 1008.55 1008.73 1008.98 1009.28 1009.63 1010.04 1010.50 1011.01 1011.56 1012.15 1012.76 1013.37 1013.97 1014.55 1015.08 1015.56 1015.98 1016.35 1016.66 1016.94 1017.20 1017.45 1017.72 1018.01 1018.33
1011.37 1011.51 1011.61 1011.65 1011.61 1011.49 1011.28 1010.99 1010.62 1010.21 1009.79 1009.39 1009.03 1008.73 1008.52 1008.40 1008.36 1008.42 1008.55 1008.74 1009.00 1009.31 1009.67 1010.08 1010.54 1011.05 1011.61 1012.20 1012.81 1013.44 1014.06 1014.66 1015.21 1015.70 1016.12 1016.48 1016.78 1017.03 1017.26 1017.47 1017.70 1017.95 1018.24
1011.20 1011.36 1011.49 1011.56 1011.55 1011.46 1011.29 1011.02 1010.69 1010.30 1009.90 1009.51 1009.17 1008.88 1008.68 1008.57 1008.54 1008.61 1008.74 1008.94 1009.19 1009.49 1009.83 1010.22 1010.65 1011.12 1011.64 1012.20 1012.80 1013.41 1014.03 1014.62 1015.17 1015.67 1016.10 1016.46 1016.75 1016.99 1017.20 1017.40 1017.60 1017.83 1018.10
1011.09 1011.28 1011.42 1011.51 1011.53 1011.47 1011.33 1011.10 1010.81 1010.47 1010.10 1009.75 1009.43 1009.18 1009.00 1008.91 1008.90 1008.98 1009.12 1009.31 1009.55 1009.82 1010.12 1010.46 1010.83 1011.25 1011.71 1012.21 1012.76 1013.33 1013.91 1014.48 1015.02 1015.50 1015.93 1016.29 1016.58 1016.82 1017.02 1017.22 1017.41 1017.64 1017.89
1011.05 1011.24 1011.39 1011.49 1011.53 1011.50 1011.40 1011.21 1010.97 1010.68 1010.37 1010.07 1009.80 1009.59 1009.45 1009.38 1009.40 1009.49 1009.63 1009.82 1010.03 1010.27 1010.53 1010.81 1011.12 1011.46 1011.84 1012.27 1012.74 1013.24 1013.76 1014.28 1014.79 1015.25 1015.66 1016.01 1016.30 1016.55 1016.75 1016.95 1017.15 1017.37 1017.62
Thickness
5728 5728 5727 5726 5726 5725 5724 5723 5723 5722 5721 5721 5720 5720 5719 5718 5718 5718 5718 5718 5718 5717 5717 5716 5715 5714 5713 5712 5711 5710 5710 5709 5709 5708 5708 5707 5707 5706 5705 5704 5704 5703 5702
5727 5726 5724 5724 5724 5723 5722 5721 5721 5720 5719 5718 5717 5716 5716 5716 5715 5715 5716 5715 5715 5715 5714 5713 5712 5711 5711 5710 5709 5708 5707 5706 5706 5705 5705 5704 5704 5703 5702 5701 5700 5700 5699
5725 5724 5723 5722 5721 5721 5720 5718 5717 5717 5716 5715 5713 5713 5713 5712 5712 5713 5713 5712 5712 5712 5712 5711 5710 5709 5708 5707 5706 5705 5704 5703 5703 5702 5702 5701 5701 5700 5699 5698 5697 5696 5695
5724 5723 5721 5720 5719 5718 5717 5716 5714 5713 5711 5710 5709 5709 5709 5709 5709 5710 5709 5709 5709 5708 5708 5708 5708 5707 5706 5705 5704 5703 5702 5701 5700 5699 5699 5698 5698 5696 5695 5694 5693 5693 5692
5722 5721 5720 5718 5717 5716 5714 5713 5711 5709 5707 5706 5706 5705 5705 5705 5705 5706 5706 5705 5705 5704 5704 5704 5704 5704 5703 5702 5701 5700 5699 5698 5697 5697 5696 5696 5695 5693 5692 5691 5690 5689 5688
5720 5719 5717 5716 5714 5713 5711 5709 5707 5705 5703 5703 5703 5701 5700 5701 5701 5701 5701 5701 5701 5700 5700 5700 5700 5700 5699 5699 5698 5697 5697 5696 5695 5694 5693 5692 5691 5690 5688 5687 5686 5685 5684
5718 5717 5715 5713 5712 5710 5708 5706 5704 5702 5699 5699 5697 5695 5695 5696 5696 5696 5697 5697 5697 5697 5696 5696 5696 5696 5696 5696 5695 5694 5694 5693 5692 5691 5690 5688 5688 5686 5685 5683 5682 5681 5680
5716 5715 5713 5711 5709 5707 5705 5704 5702 5698 5696 5696 5693 5689 5686 5687 5690 5692 5692 5692 5692 5692 5692 5692 5692 5692 5692 5692 5692 5691 5691 5690 5689 5688 5687 5686 5684 5683 5682 5680 5678 5677 5676
5713 5712 5711 5709 5707 5705 5703 5701 5700 5697 5693 5691 5691 5688 5683 5680 5682 5685 5687 5688 5688 5688 5689 5689 5689 5689 5689 5688 5688 5688 5688 5687 5686 5685 5684 5682 5681 5680 5678 5677 5675 5673 5672
5710 5709 5708 5707 5705 5703 5701 5699 5698 5695 5692 5689 5687 5686 5685 5684 5680 5678 5681 5682 5683 5684 5685 5686 5686 5686 5685 5685 5685 5685 5684 5684 5683 5681 5680 5678 5677 5676 5674 5673 5671 5670 5668
5707 5706 5705 5704 5703 5701 5699 5698 5695 5693 5691 5688 5685 5683 5681 5680 5679 5676 5674 5676 5678 5680 5681 5682 5683 5683 5683 5683 5682 5682 5682 5680 5679 5678 5676 5674 5673 5672 5670 5669 5667 5666 5664
5703 5703 5702 5701 5699 5698 5697 5695 5694 5692 5689 5687 5685 5683 5681 5679 5676 5674 5672 5671 5672 5675 5677 5679 5680 5680 5680 5680 5680 5679 5678 5677 5676 5674 5673 5671 5669 5668 5666 5665 5663 5661 5660
5699 5700 5700 5698 5696 5696 5695 5693 5691 5689 5687 5685 5683 5681 5680 5679 5677 5675 5672 5669 5668 5670 5672 5675 5676 5677 5677 5677 5677 5676 5675 5674 5673 5671 5669 5667 5665 5663 5662 5660 5658 5657 5656
5698 5698 5697 5695 5694 5693 5692 5690 5688 5687 5685 5683 5681 5679 5677 5677 5676 5674 5671 5668 5665 5665 5667 5670 5672 5673 5674 5674 5673 5672 5672 5671 5670 5668 5666 5664 5662 5660 5658 5656 5654 5653 5652
5697 5696 5694 5693 5691 5690 5689 5687 5685 5684 5682 5680 5678 5677 5675 5674 5673 5672 5671 5669 5666 5663 5663 5665 5667 5670 5670 5670 5670 5669 5669 5668 5667 5665 5663 5661 5659 5657 5655 5653 5651 5650 5650
5695 5694 5692 5690 5689 5688 5686 5685 5683 5681 5679 5677 5676 5674 5672 5672 5671 5670 5669 5667 5666 5664 5661 5663 5664 5666 5666 5667 5666 5666 5666 5665 5664 5662 5660 5658 5656 5654 5652 5650 5649 5648 5647
5693 5691 5690 5687 5686 5685 5684 5682 5680 5678 5676 5674 5673 5672 5670 5669 5668 5667 5666 5665 5663 5662 5660 5660 5661 5662 5662 5663 5663 5662 5662 5661 5660 5659 5657 5655 5654 5652 5650 5648 5647 5646 5645
5691 5690 5688 5686 5684 5683 5682 5680 5678 5676 5674 5672 5671 5669 5668 5667 5665 5665 5664 5662 5661 5660 5658 5657 5657 5658 5658 5659 5659 5659 5658 5658 5657 5656 5655 5653 5651 5649 5648 5646 5645 5644 5642
5689 5688 5686 5684 5682 5681 5679 5678 5676 5674 5673 5671 5670 5668 5666 5665 5664 5663 5661 5660 5659 5658 5656 5655 5654 5654 5654 5655 5654 5654 5654 5653 5653 5652 5651 5649 5648 5646 5645 5644 5643 5641 5640
5687 5686 5684 5683 5681 5679 5677 5676 5674 5673 5671 5669 5668 5666 5665 5664 5663 5662 5660 5658 5656 5654 5652 5651 5650 5650 5650 5651 5650 5649 5649 5649 5648 5648 5646 5645 5644 5643 5642 5641 5640 5638 5637
5686 5684 5682 5680 5678 5677 5675 5673 5672 5671 5669 5667 5666 5665 5664 5663 5662 5661 5660 5657 5655 5652 5650 5649 5648 5647 5647 5647 5647 5647 5646 5645 5644 5643 5642 5641 5640 5639 5639 5638 5637 5636 5635
5682 5681 5679 5677 5675 5675 5673 5671 5669 5668 5667 5665 5664 5663 5662 5660 5660 5659 5657 5656 5654 5652 5650 5648 5646 5645 5645 5645 5644 5643 5641 5640 5640 5641 5638 5638 5637 5636 5636 5635 5635 5634 5633
5679 5677 5676 5674 5673 5672 5670 5668 5667 5665 5664 5663 5662 5660 5660 5660 5658 5656 5654 5653 5651 5650 5649 5648 5646 5646 5645 5644 5642 5640 5638 5638 5637 5638 5634 5635 5635 5634 5634 5634 5634 5632 5631
5676 5675 5674 5672 5670 5669 5668 5666 5664 5662 5661 5661 5659 5658 5657 5656 5655 5653 5651 5650 5649 5648 5647 5647 5646 5646 5645 5643 5641 5639 5637 5635 5634 5634 5632 5631 5633 5632 5633 5632 5632 5631 5629
5673 5672 5671 5669 5668 5667 5666 5663 5661 5660 5659 5658 5657 5656 5654 5653 5651 5649 5648 5646 5646 5646 5645 5645 5644 5644 5642 5641 5639 5635 5634 5632 5632 5633 5630 5629 5630 5629 5630 5630 5630 5629 5627
5670 5669 5668 5667 5666 5665 5663 5661 5658 5657 5656 5655 5654 5653 5651 5650 5648 5646 5645 5644 5643 5643 5643 5642 5641 5640 5640 5639 5637 5635 5634 5631 5630 5630 5630 5627 5628 5626 5626 5628 5627 5626 5624